Regional Weather Roundup
Issued by NWS

Home | Current Version | Previous Version | Graphics & Text | Print | Product List | Glossary Off
Versions: 1 2 3 4 5 6 7 8 9 10 11 12 13 14 15 16 17 18 19 20 21 22 23 24 25 26 27 28 29 30 31 32 33 34 35 36 37 38 39 40 41 42 43 44 45 46 47 48 49 50

000
ASUS43 KMPX 200510
RWRMN
WEATHER ROUNDUP FOR MINNESOTA
NATIONAL WEATHER SERVICE TWIN CITIES/CHANHASSEN MN
1100 PM CST SUN NOV 19 2017


NOTE: "FAIR" INDICATES FEW OR NO CLOUDS BELOW 12,000 FEET WITH NO
SIGNIFICANT WEATHER AND/OR OBSTRUCTIONS TO VISIBILITY. N/A MEANS
CURRENT SKY AND/OR WEATHER CONDITIONS ARE NOT AVAILABLE.

MNZ060>063-068>070-200600-
   Twin Cities Metro

CITY           SKY/WX    TMP DP  RH WIND       PRES   REMARKS
TWIN CITIES    CLOUDY    37  27  67 SW3       29.79F
ST PAUL        CLOUDY    28  25  88 CALM      29.81F
CRYSTAL        CLEAR     36  23  59 SW5       29.78F
BLAINE         CLEAR     34  27  75 S7        29.77F WCI  28
LAKEVILLE      CLOUDY    36  27  69 CALM      29.80F
EDEN PRAIRIE   CLOUDY    34  25  69 SW7       29.78F WCI  28
SOUTH ST PAUL  CLOUDY    34  26  71 S3        29.80F
LAKE ELMO      FAIR      32  27  80 S6        29.80F WCI  26
$$
MNZ001>005-007-008-013>017-022>024-027-028-200600-
   Northwest Minnesota

CITY           SKY/WX    TMP DP  RH WIND       PRES   REMARKS
BEMIDJI        CLEAR     16  15  94 CALM      29.69F
HALLOCK        CLOUDY    12  10  92 CALM      29.69S
ROSEAU         CLOUDY    19  14  79 SE3       29.69S
WARROAD        PTCLDY    18  12  79 SE3       29.69F
THIEF RVR FALL CLOUDY    18  16  92 SE5       29.69F WCI  11
CROOKSTON      CLOUDY    21  19  93 SE5       29.70S WCI  15
FOSSTON        CLOUDY    19  14  79 CALM      29.70S
DETROIT LAKES  CLOUDY    27  23  86 SE3       29.71F
MOORHEAD       CLOUDY    23  19  86 CALM      29.72S
PARK RAPIDS    CLEAR     25  19  78 CALM      29.69F
MAHNOMEN       FAIR      24  20  86 S5        29.70R WCI  18
$$
MNZ006-009>011-018-025>026-200600-
   North Central Minnesota

CITY           SKY/WX    TMP DP  RH WIND       PRES   REMARKS
BAUDETTE       CLOUDY    16  11  80 SE7       29.70F WCI   6
FLAG ISLAND    PTCLDY    19  16  86 SE6       29.69F WCI  11
INTL FALLS     CLOUDY    13   9  84 SE3       29.73F
WASKISH        CLOUDY    14  12  92 E3        29.70F
BIG FORK       CLOUDY     9   7  92 CALM      29.71F
LONGVILLE      CLOUDY    16  16 100 CALM      29.71F
GRAND RAPIDS   CLOUDY    16  14  92 SE3       29.74F
CRANE LAKE     CLOUDY    10   9  92 CALM      29.77F
ORR            CLOUDY    10   9  92 CALM      29.71S
COOK           CLOUDY     9   9 100 CALM      29.74F
WALKER         FAIR      27  22  79 CALM      29.70F
$$
MNZ012-019>021-037-200600-
   Northeast Minnesota

CITY           SKY/WX    TMP DP  RH WIND       PRES   REMARKS
DULUTH         PTCLDY    20  17  88 SE6       29.75S WCI  12
ELY            CLOUDY    12  10  92 SE3       29.74F
HIBBING        CLOUDY     9   6  88 NW3       29.74F
EVELETH        CLOUDY     9   5  85 CALM      29.75F
DULUTH HARBOR  CLEAR     25  19  80 CALM      29.80S
TWO HARBORS    PTCLDY    18  12  79 CALM      29.76S
SILVER BAY     CLOUDY    16  12  86 CALM      29.76F
GRAND MARAIS     N/A     23  15  71 W5        29.81F WCI  17
G MARAIS ARPRT CLOUDY     9   3  78 CALM      29.74S
$$
MNZ029>031-032-039>041-046>048-054>057-064-200600-
   West Central Minnesota

CITY           SKY/WX    TMP DP  RH WIND       PRES   REMARKS
FERGUS FALLS   CLEAR     27  21  80 S6        29.75S WCI  20
WHEATON        CLOUDY    27  21  80 S6        29.75F WCI  20
MORRIS         CLEAR     27  21  80 CALM      29.73F
ALEXANDRIA     CLEAR     31  24  75 SW7       29.73F WCI  24
ELBOW LAKE     FAIR      29  24  81 SE5       29.74S WCI  24
WADENA         CLOUDY    21  19  93 CALM      29.71S
GLENWOOD       CLEAR     28  25  86 SW7       29.74F WCI  21
APPLETON       CLOUDY    32  25  74 CALM      29.74F
BENSON         CLOUDY    27  21  80 CALM      29.76F
ORTONVILLE     CLOUDY    36  25  64 MISG      29.74S
MADISON        CLOUDY    37  27  65 CALM      29.75S
WILLMAR        FAIR      32  27  80 CALM      29.77F
$$
MNZ033>034-036-042>043-049>051-058-059-200600-
   Central Minnesota

CITY           SKY/WX    TMP DP  RH WIND       PRES   REMARKS
ST CLOUD       CLEAR     24  22  91 CALM      29.75F
SAUK CENTRE    FAIR      32  25  74 CALM      29.74F
PAYNESVILLE    CLEAR     29  25  84 SW3       29.76F
AITKIN         CLOUDY    18  16  93 CALM      29.72S
PINE RIVER     CLOUDY    18  16  93 CALM      29.75S
BRAINERD       CLEAR     25  21  85 CALM      29.73S
STAPLES        CLEAR     25  21  86 S5        29.72F WCI  19
LONG PRAIRIE   FAIR      28  23  80 S6        29.74F WCI  22
LITTLE FALLS   CLEAR     27  21  80 CALM      29.74F
LITCHFIELD     CLOUDY    34  27  75 CALM      29.77F
BUFFALO        CLEAR     33  24  71 S3        29.78F
MAPLE LAKE     CLEAR     32  27  79 S5        29.77F WCI  28
HUTCHINSON     CLOUDY    32  26  79 S3        29.79F
$$
MNZ037-044-045-052-053-200600-
   East Central Minnesota

CITY           SKY/WX    TMP DP  RH WIND       PRES   REMARKS
PRINCETON      CLEAR     25  21  86 CALM      29.76F
MORA           CLEAR     21  19  93 CALM      29.77F
CAMBRIDGE      CLEAR     27  19  74 CALM      29.77F
RUSH CITY      CLEAR     27  22  80 S3        29.77F
MOOSE LAKE     CLEAR     19  18  93 CALM      29.74S
HINCKLEY       FAIR      21  19  93 CALM      29.76F
CLOQUET        CLEAR     19  14  79 CALM      29.75S
MCGREGOR       CLEAR     19  18  93 SE3       29.75S
$$
MNZ071>073-080-081-089-090-097-098-200600-
   Southwest Minnesota

CITY           SKY/WX    TMP DP  RH WIND       PRES   REMARKS
MONTEVIDEO     CLOUDY    34  25  69 SW3       29.75F
GRANITE FALLS  CLOUDY    33  25  72 CALM      29.77F
CANBY          CLOUDY    43  26  50 SW3       29.75S
MARSHALL       CLOUDY    37  24  59 SE3       29.76F
REDWOOD FALLS  CLOUDY    34  23  64 S9        29.77F WCI  27
OLIVIA         CLOUDY    32  25  74 S5        29.76F WCI  27
PIPESTONE      PTCLDY    32  23  69 S7        29.76F WCI  26
WINDOM         CLOUDY    34  19  55 S3        29.79F
WORTHINGTON    CLOUDY    37  25  61 SW12      29.79F
JACKSON        MOCLDY    36  28  75 S6        29.80F
SLAYTON        PTCLDY    35  25  67 S13       29.78F WCI  26
$$
MNZ065>067-074>077-082>085-091>093-200600-
   South Central Minnesota

CITY           SKY/WX    TMP DP  RH WIND       PRES   REMARKS
MANKATO        CLOUDY    34  26  72 S9        29.81F WCI  27
NEW ULM        CLOUDY    32  25  74 CALM      29.79F
ST JAMES       PTCLDY    34  27  75 S10       29.81F WCI  26
FAIRMONT       CLOUDY    36  28  73 S8        29.82F
GLENCOE        CLOUDY    33  27  78 S5        29.78F WCI  29
FARIBAULT      CLOUDY    34  27  75 S5        29.82F WCI  30
OWATONNA       CLOUDY    36  28  75 S12       29.82F
WASECA         CLOUDY    34  28  80 S9        29.83F WCI  26
ALBERT LEA     CLOUDY    37  27  65 S7        29.83F
$$
MNZ078>079-086>088-094>096-200600-
   Southeast Minnesota

CITY           SKY/WX    TMP DP  RH WIND       PRES   REMARKS
ROCHESTER      CLOUDY    32  27  81 S13       29.84F WCI  22
RED WING       CLOUDY    34  25  69 CALM      29.82F
STANTON        CLOUDY    32  27  80 S3        29.81S
DODGE CENTER   CLOUDY    34  27  75 S12       29.83F WCI  25
WINONA         CLOUDY    37  28  70 SW9       29.87F
AUSTIN         CLOUDY    32  27  80 S8        29.85F WCI  25
PRESTON        CLOUDY    33  25  73 SW13      29.87F WCI  24
$$
ABBREVIATIONS USED IN REMARKS
   TC - TEMPERATURES IN CELSIUS
  WCI - WIND CHILL INDEX
   HX - HEAT INDEX
  VSB - VISIBILITY
$$




USA.gov is the U.S. government's official web portal to all federal, state and local government web resources and services.